Location: Arpaise
(41.0333°N, 14.7333°E)
Time: 08:15:28
(UTC+00:00)

Cosmos 2084 - Pass Details

Date: 05 July 2020
Orbit: 571 x 612 km, 62.8° (Epoch: 05 August)

Event Time Altitude Azimuth Distance (km) Brightness Sun altitude
Rises 21:41:36 0° 320° (NW) 2,879 8.2 -23.4°
Reaches altitude 10° 21:43:55 10° 315° (NW) 1,969 7.0 -23.5°
Enters shadow 21:48:05 52° 249° (WSW) 754 3.9 -23.8°
